Location: Castle
(40.7167°S, 175.9500°E)
Time: 17:36:10
(UTC+00:00)

NANOSAT C BR1 - Visible Passes

Search period start: 03 December 2024 00:00
Search period end: 13 December 2024 00:00
Orbit: 531 x 538 km, 98.1° (Epoch: 02 December)

Date Brightness Start Highest point End Pass type
(mag) Time Alt. Az. Time Alt. Az. Time Alt. Az.
03 Dec ? 15:04:31 10° ENE 15:06:58 16° ESE 15:09:25 10° SSE visible
04 Dec ? 14:56:14 10° E 14:58:01 13° ESE 14:59:48 10° SE visible
05 Dec ? 14:48:50 10° ESE 14:49:01 10° ESE 14:49:13 10° ESE visible
07 Dec ? 16:00:37 10° NNE 16:04:30 71° ESE 16:08:26 10° S visible
08 Dec ? 15:51:29 10° NNE 15:55:17 54° ESE 15:59:09 10° S visible
09 Dec ? 15:42:23 10° NE 15:46:03 41° ESE 15:49:46 10° S visible
10 Dec ? 15:33:18 10° NE 15:36:47 32° ESE 15:40:18 10° S visible
11 Dec ? 15:24:17 10° NE 15:27:29 25° ESE 15:30:44 10° SSE visible
12 Dec ? 15:15:19 10° ENE 15:18:10 20° ESE 15:21:03 10° SSE visible
